Regional Weather Roundup
Issued by NWS Northern Indiana

Home | Current Version | Previous Version | Text Only | Print | Product List | Glossary Off
Versions: 1 2 3 4 5 6 7 8 9 10 11 12 13 14 15 16 17 18 19 20 21 22 23 24 25 26 27 28 29 30 31 32 33 34 35 36 37 38 39 40 41 42 43 44 45 46 47 48 49 50

000
ASUS43 KIWX 190700
RWRIWX

KIWX WEATHER ROUNDUP
NATIONAL WEATHER SERVICE NORTHERN INDIANA
300 AM EDT SUN APR 19 2015

NOTE: "FAIR" INDICATES FEW OR NO CLOUDS BELOW 12,000 FEET WITH NO
SIGNIFICANT WEATHER AND/OR OBSTRUCTIONS TO VISIBILITY.

* THESE STATIONS ARE NOT UNDER NWS QUALITY CONTROL. THEY ALSO MAY NOT
  REPORT WEATHER SUCH AS PRECIPITATION OR FOG.

INZ001>027-190800-
NORTHERN INDIANA

CITY           SKY/WX    TMP DP  RH WIND       PRES   REMARKS
SOUTH BEND     MOCLDY    57  25  29 E15       30.00F
GOSHEN         CLOUDY    52  32  46 E13       29.99F
ANGOLA*        CLEAR     52  30  43 E10       30.02F
FORT WAYNE     MOCLDY    50  37  61 E15       30.00F

$$
INZ028>050-190800-
CENTRAL INDIANA

CITY           SKY/WX    TMP DP  RH WIND       PRES   REMARKS
LAFAYETTE      MOCLDY    57  41  55 E12       29.91F
KOKOMO*        MOCLDY    54  37  54 E14       29.95F
MUNCIE*        CLOUDY    54  40  59 E9        29.96F
INDIANAPOLIS   CLOUDY    63  49  60 E12       29.89F

$$
MIZ043>046-050>051-056>058-064>065-071>073-077>080-190800-
SOUTHWEST LOWER MICHIGAN

CITY           SKY/WX    TMP DP  RH WIND       PRES   REMARKS
BATTLE CREEK   MOCLDY    49  26  41 E10       30.05F
BENTON HARBOR  CLOUDY    55  25  31 E13       29.98F
COLDWATER*     PTCLDY    51  26  36 E9        30.03F
HILLSDALE*     PTCLDY    51  27  39 E15       30.05F
HOLLAND        MOCLDY    50  30  46 E15G22    30.04F
GRAND RAPIDS   PTCLDY    46  28  49 E18G26    30.07F
KALAMAZOO      MOCLDY    51  23  33 E9        30.04F
STURGIS*       MOCLDY    54  28  37 E5G18     30.01F
THREE RIVERS*  FAIR      53  24  31 E9        30.02F

$$
OHZ001>008-015>018-024>025-190800-
NORTHWEST OHIO

CITY           SKY/WX    TMP DP  RH WIND       PRES   REMARKS
DEFIANCE       CLOUDY    49  36  61 NE8       30.03F
FINDLAY        MOCLDY    50  37  61 NE14      30.01F
TOLEDO EXPRESS MOCLDY    49  33  54 E13       30.05F
TOLEDO METCALF MOCLDY    48  34  58 NE10G17   30.07F
LIMA           CLOUDY    53  38  56 E13       29.99F

$$
AND FOR LAKE MICHIGAN COASTAL AND OPEN LAKE BUOY OBSERVATIONS

STATION/POSITION TEMP    WIND        PRES    VSBY  WAVE
                 AIR SEA DIR/SP/G                  HT/PER
                 (F)     (DEG/KT/KT) (MB)    (MI)  (FT/S)
CALUMET HARBOR    50                   N/A
MICHIGAN CITY     58      80/ 12/ 18   N/A
BURNS HARBOR      58     120/ 17/ 24 1014.6S
SAINT JOSEPH      60     100/  1/ 12 1016.3F
MICHIGAN CITY     54 45  130/ 16/ 19   N/A           3/ 6

$$
&&


USA.gov is the U.S. government's official web portal to all federal, state and local government web resources and services.